Location: El Limón
(10.3059°N, 67.6321°W)
Time: 11:51:18
(UTC+00:00)

Atlas Centaur 2 - Pass Details

Date: 14 April 2024
Orbit: 458 x 1278 km, 30.4° (Epoch: 29 May)

Event Time Altitude Azimuth Distance (km) Brightness Sun altitude
Exits shadow 08:43:00 84° 213° (SSW) 641 1.4 -24.2°
Maximum altitude 08:43:01 84° 211° (SSW) 641 1.4 -24.2°
Drops below altitude 10° 08:48:18 10° 123° (ESE) 2,283 5.0 -22.9°
Sets 08:51:06 0° 122° (ESE) 3,362 6.0 -22.2°
